Location: Brede
(50.9167°N, 0.6000°E)
Time: 03:38:50
(UTC+00:00)

GEOS 3 Rocket - Pass Details

Date: 08 August 2020
Orbit: 770 x 849 km, 115.0° (Epoch: 27 September)

Event Time Altitude Azimuth Distance (km) Brightness Sun altitude
Rises 01:48:30 0° 42° (NE) 3,414 8.3 -19.2°
Reaches altitude 10° 01:50:50 10° 41° (NE) 2,480 7.3 -19.0°
Maximum altitude 01:56:15 79° 316° (NW) 870 3.7 -18.6°
Enters shadow 01:59:05 29° 233° (SW) 1,497 4.5 -18.4°
